FW6650 Weather Reports


Display with metric or nautical units.
time (UTC)temp
F
wind
direction
speed
MPH
gust
MPH
rain 1hr
in
rain 24hr
in
rain mn
in
humidity
%
barometer
mb
20260904090523 85 350 8.0 21.0 0.00 0.00 0.00 49 1014.1
20260904090046 84 19 10.0 21.0 0.00 0.00 0.00 50 1014.2
20260904085526 84 10 10.0 18.0 0.00 0.00 0.00 51 1014.2
20260904085026 83 30 13.0 22.0 0.00 0.00 0.00 51 1014.1
20260904084540 84 329 12.0 22.0 0.00 0.00 0.00 51 1014.1
20260904084026 84 341 12.0 20.0 0.00 0.00 0.00 52 1014.2
20260904083526 84 360 11.0 20.0 0.00 0.00 0.00 52 1014.2
20260904083047 84 15 11.0 20.0 0.00 0.00 0.00 52 1014.3
20260904082527 83 327 14.0 20.0 0.00 0.00 0.00 52 1014.1
20260904082026 83 321 10.0 18.0 0.00 0.00 0.00 54 1014.2
20260904081540 83 30 8.0 20.0 0.00 0.00 0.00 54 1014.2
20260904081026 83 33 12.0 20.0 0.00 0.00 0.00 54 1014.1
20260904080526 83 311 10.0 16.0 0.00 0.00 0.00 54 1014.1
20260904080045 83 329 7.0 18.0 0.00 0.00 0.00 54 1014.1
20260904075526 82 24 9.0 18.0 0.00 0.00 0.00 55 1014.1
20260904075025 82 24 11.0 18.0 0.00 0.00 0.00 55 1014.1
20260904074554 82 46 7.0 18.0 0.00 0.00 0.00 56 1014.0
20260904074026 81 350 9.0 18.0 0.00 0.00 0.00 56 1014.0
20260904073529 82 19 11.0 18.0 0.00 0.00 0.00 56 1013.9
20260904073057 81 34 8.0 16.0 0.00 0.00 0.00 56 1013.9
20260904072527 81 330 10.0 16.0 0.00 0.00 0.00 55 1013.9
20260904072026 81 360 8.0 17.0 0.00 0.00 0.00 55 1013.9
20260904071546 81 355 10.0 17.0 0.00 0.00 0.00 55 1013.8
20260904071028 81 344 10.0 18.0 0.00 0.00 0.00 55 1013.9
20260904070528 81 30 11.0 18.0 0.00 0.00 0.00 55 1013.7
20260904070045 81 355 12.0 22.0 0.00 0.00 0.00 56 1013.6
20260904065527 81 316 11.0 22.0 0.00 0.00 0.00 56 1013.7
20260904065026 80 311 14.0 22.0 0.00 0.00 0.00 55 1013.6
20260904064556 81 303 9.0 17.0 0.00 0.00 0.00 56 1013.5
20260904064026 80 338 10.0 17.0 0.00 0.00 0.00 56 1013.5
20260904063527 80 329 6.0 15.0 0.00 0.00 0.00 57 1013.5
20260904063101 80 342 9.0 15.0 0.00 0.00 0.00 57 1013.4
20260904062526 80 360 8.0 16.0 0.00 0.00 0.00 58 1013.4
20260904062026 79 329 8.0 16.0 0.00 0.00 0.00 58 1013.3
20260904061540 79 306 7.0 13.0 0.00 0.00 0.00 58 1013.4
20260904061028 79 299 5.0 13.0 0.00 0.00 0.00 59 1013.3
20260904060527 79 305 7.0 13.0 0.00 0.00 0.00 58 1013.4
20260904060100 79 266 2.0 6.0 0.00 0.00 0.00 58 1013.5
20260904055526 79 319 2.0 5.0 0.00 0.00 0.00 58 1013.5
20260904055026 79 62 0.0 9.0 0.00 0.00 0.00 58 1013.6
20260904054554 78 0 3.0 13.0 0.00 0.00 0.00 59 1013.5
20260904054026 78 41 2.0 13.0 0.00 0.00 0.00 59 1013.5
20260904053526 78 121 4.0 10.0 0.00 0.00 0.00 59 1013.4
20260904053045 78 125 5.0 16.0 0.00 0.00 0.00 59 1013.3
20260904052529 78 138 7.0 16.0 0.00 0.00 0.00 59 1013.4
20260904052027 78 134 7.0 16.0 0.00 0.00 0.00 59 1013.3
20260904051544 78 76 6.0 12.0 0.00 0.00 0.00 59 1013.3
20260904051030 78 360 7.0 12.0 0.00 0.00 0.00 59 1013.3
20260904050526 77 360 3.0 10.0 0.00 0.00 0.00 59 1013.3
20260904050049 77 360 2.0 8.0 0.00 0.00 0.00 59 1013.3
20260904045528 77 360 3.0 7.0 0.00 0.00 0.00 60 1013.4
20260904045028 76 46 3.0 8.0 0.00 0.00 0.00 61 1013.4
20260904044548 76 17 2.0 10.0 0.00 0.00 0.00 62 1013.3
20260904044028 76 333 4.0 10.0 0.00 0.00 0.00 62 1013.3
20260904043526 76 55 4.0 10.0 0.00 0.00 0.00 63 1013.3
20260904043046 76 338 3.0 8.0 0.00 0.00 0.00 63 1013.3
20260904042524 76 360 4.0 9.0 0.00 0.00 0.00 63 1013.3
20260904042024 75 5 4.0 9.0 0.00 0.00 0.00 63 1013.3
20260904041543 75 345 4.0 10.0 0.00 0.00 0.00 63 1013.2
20260904041027 76 9 5.0 11.0 0.00 0.00 0.00 63 1013.1
20260904040524 76 317 6.0 18.0 0.00 0.00 0.00 62 1013.1
20260904040047 76 343 6.0 18.0 0.00 0.00 0.00 62 1013.0
20260904035526 76 323 8.0 15.0 0.00 0.00 0.00 62 1013.0
20260904035030 76 28 8.0 15.0 0.00 0.00 0.00 61 1013.0
20260904034551 76 344 4.0 8.0 0.00 0.00 0.00 60 1013.0
20260904034024 76 348 4.0 8.0 0.00 0.00 0.00 59 1012.9
20260904033525 76 5 2.0 9.0 0.00 0.00 0.00 58 1012.9
20260904033048 76 5 4.0 11.0 0.00 0.00 0.00 58 1013.0
20260904032525 76 312 4.0 11.0 0.00 0.00 0.00 58 1013.0
20260904032025 76 355 4.0 9.0 0.00 0.00 0.00 57 1012.9
20260904031545 76 18 3.0 8.0 0.00 0.00 0.00 56 1012.9
20260904031024 76 0 1.0 5.0 0.00 0.00 0.00 56 1012.9
20260904030524 76 32 2.0 5.0 0.00 0.00 0.00 56 1012.9
20260904030043 76 57 1.0 7.0 0.00 0.00 0.00 55 1012.9
20260904025524 76 60 2.0 7.0 0.00 0.00 0.00 55 1012.8
20260904025027 76 350 2.0 9.0 0.00 0.00 0.00 55 1012.7
20260904024543 76 355 2.0 9.0 0.00 0.00 0.00 55 1012.8
20260904024024 76 13 2.0 7.0 0.00 0.00 0.00 56 1012.8
20260904023525 76 27 2.0 10.0 0.00 0.00 0.00 56 1012.9
20260904023050 76 27 3.0 11.0 0.00 0.00 0.00 56 1012.8
20260904022526 76 15 4.0 11.0 0.00 0.00 0.00 56 1012.9
20260904022025 76 360 4.0 9.0 0.00 0.00 0.00 56 1012.8
20260904021553 76 360 4.0 9.0 0.00 0.00 0.00 56 1012.8
20260904021025 76 26 3.0 9.0 0.00 0.00 0.00 56 1012.8
20260904020524 76 31 3.0 8.0 0.00 0.00 0.00 56 1012.9
20260904020045 76 344 4.0 8.0 0.00 0.00 0.00 56 1012.9
20260904015525 77 333 3.0 10.0 0.00 0.00 0.00 55 1013.0
20260904015028 77 19 3.0 13.0 0.00 0.00 0.00 54 1012.8
20260904014551 77 348 6.0 14.0 0.00 0.00 0.00 53 1012.9
20260904014024 77 18 7.0 14.0 0.00 0.00 0.00 53 1012.8
20260904013528 77 331 4.0 14.0 0.00 0.00 0.00 52 1012.9
20260904013110 77 338 1.0 6.0 0.00 0.00 0.00 51 1013.0
20260904012524 78 234 0.0 13.0 0.00 0.00 0.00 51 1012.9
20260904012024 78 334 2.0 13.0 0.00 0.00 0.00 50 1013.0
20260904011545 78 108 7.0 14.0 0.00 0.00 0.00 50 1012.9
20260904011028 78 36 4.0 14.0 0.00 0.00 0.00 50 1013.0
20260904010525 78 5 6.0 14.0 0.00 0.00 0.00 49 1012.9
20260904010041 78 13 6.0 11.0 0.00 0.00 0.00 49 1012.8
20260904005526 78 41 6.0 11.0 0.00 0.00 0.00 49 1012.8
20260904005026 78 9 5.0 11.0 0.00 0.00 0.00 49 1012.8
20260904004547 78 26 5.0 10.0 0.00 0.00 0.00 50 1012.8
20260904004026 78 355 4.0 10.0 0.00 0.00 0.00 50 1012.8
20260904003526 78 360 4.0 11.0 0.00 0.00 0.00 51 1012.7
20260904003041 78 5 5.0 11.0 0.00 0.00 0.00 50 1012.7
20260904002526 78 14 4.0 8.0 0.00 0.00 0.00 51 1012.7
20260904002026 78 360 4.0 10.0 0.00 0.00 0.00 51 1012.8
20260904001556 78 13 4.0 11.0 0.00 0.00 0.00 50 1012.8
20260904001028 78 22 6.0 11.0 0.00 0.00 0.00 49 1012.8
20260904000526 78 22 5.0 10.0 0.00 0.00 0.00 49 1012.8
20260903235524 78 15 6.0 11.0 0.00 0.00 0.00 48 1012.8
20260903235026 78 26 5.0 9.0 0.00 0.00 0.00 48 1012.9
20260903234547 78 29 3.0 9.0 0.00 0.00 0.00 48 1012.9
20260903234027 78 26 3.0 9.0 0.00 0.00 0.00 48 1012.8
20260903233528 78 15 3.0 8.0 0.00 0.00 0.00 48 1012.8
20260903233046 78 15 3.0 9.0 0.00 0.00 0.00 48 1012.7
20260903232525 78 37 4.0 9.0 0.00 0.00 0.00 47 1012.8
20260903232025 78 5 4.0 13.0 0.00 0.00 0.00 47 1012.8
20260903231542 79 352 6.0 13.0 0.00 0.00 0.00 46 1012.9
20260903231025 79 339 4.0 8.0 0.00 0.00 0.00 46 1012.9
20260903230528 79 25 2.0 5.0 0.00 0.00 0.00 45 1012.9
20260903230042 79 26 2.0 6.0 0.00 0.00 0.00 44 1013.0
20260903225525 79 355 3.0 7.0 0.00 0.00 0.00 44 1012.9
20260903225026 79 13 3.0 9.0 0.00 0.00 0.00 44 1013.0
20260903224549 79 25 2.0 9.0 0.00 0.00 0.00 44 1012.9
20260903224023 79 360 4.0 9.0 0.00 0.00 0.00 43 1012.9
20260903223523 79 12 2.0 7.0 0.00 0.00 0.00 43 1012.9
20260903223043 79 351 3.0 7.0 0.00 0.00 0.00 43 1012.9
20260903222526 79 9 2.0 9.0 0.00 0.00 0.00 42 1013.0
20260903222032 79 342 4.0 9.0 0.00 0.00 0.00 42 1013.0
20260903221544 80 360 5.0 10.0 0.00 0.00 0.00 41 1013.0
20260903221025 80 340 5.0 10.0 0.00 0.00 0.00 41 1013.1
20260903220528 80 335 4.0 10.0 0.00 0.00 0.00 41 1013.0
20260903220047 80 17 4.0 10.0 0.00 0.00 0.00 41 1012.9
20260903215524 80 19 2.0 9.0 0.00 0.00 0.00 41 1012.9
20260903215026 80 36 3.0 9.0 0.00 0.00 0.00 41 1012.9
20260903214540 80 355 3.0 9.0 0.00 0.00 0.00 41 1012.9
20260903214024 80 36 2.0 5.0 0.00 0.00 0.00 41 1012.8
20260903213527 80 83 0.0 4.0 0.00 0.00 0.00 41 1012.8
20260903213049 80 83 1.0 4.0 0.00 0.00 0.00 41 1012.9
20260903212529 80 0 0.0 0.0 0.00 0.00 0.00 41 1012.8
20260903212025 80 0 0.0 1.0 0.00 0.00 0.00 41 1012.9
20260903211549 80 0 0.0 2.0 0.00 0.00 0.00 40 1012.9
20260903211025 80 0 0.0 4.0 0.00 0.00 0.00 40 1012.8
20260903210525 80 0 0.0 4.0 0.00 0.00 0.00 40 1012.8
20260903210047 80 5 1.0 5.0 0.00 0.00 0.00 40 1012.9
20260903205528 80 14 1.0 5.0 0.00 0.00 0.00 39 1012.8
20260903205027 80 13 2.0 5.0 0.00 0.00 0.00 39 1012.8
20260903204544 80 360 1.0 5.0 0.00 0.00 0.00 39 1012.7
20260903204026 80 56 1.0 5.0 0.00 0.00 0.00 39 1012.8
20260903203525 80 55 3.0 5.0 0.00 0.00 0.00 39 1012.9
20260903203052 80 0 0.0 2.0 0.00 0.00 0.00 39 1012.9
20260903202525 81 0 0.0 4.0 0.00 0.00 0.00 38 1012.9
20260903202027 81 0 1.0 4.0 0.00 0.00 0.00 38 1012.9
20260903201543 81 251 0.0 8.0 0.00 0.00 0.00 38 1012.9
20260903201026 81 0 2.0 8.0 0.00 0.00 0.00 38 1012.9
20260903200525 81 302 3.0 8.0 0.00 0.00 0.00 38 1012.9
20260903200047 81 355 2.0 7.0 0.00 0.00 0.00 38 1012.9
20260903195524 81 338 2.0 7.0 0.00 0.00 0.00 38 1012.9
20260903195025 81 39 2.0 9.0 0.00 0.00 0.00 38 1012.9
20260903194545 81 0 1.0 10.0 0.00 0.00 0.00 38 1012.9
20260903194027 81 350 6.0 10.0 0.00 0.00 0.00 37 1012.9
20260903193525 81 329 1.0 12.0 0.00 0.00 0.00 38 1012.9
20260903193040 82 329 2.0 12.0 0.00 0.00 0.00 38 1012.9
20260903192525 82 340 6.0 12.0 0.00 0.00 0.00 37 1012.9
20260903192028 82 40 6.0 11.0 0.00 0.00 0.00 38 1012.9
20260903191544 82 355 3.0 8.0 0.00 0.00 0.00 39 1012.9
20260903191025 82 351 2.0 6.0 0.00 0.00 0.00 39 1012.8
20260903190525 82 26 2.0 6.0 0.00 0.00 0.00 39 1012.9
20260903190045 82 348 2.0 6.0 0.00 0.00 0.00 39 1012.7
20260903185524 82 0 2.0 6.0 0.00 0.00 0.00 40 1012.8
20260903185025 82 26 2.0 6.0 0.00 0.00 0.00 40 1012.7
20260903184547 82 340 3.0 8.0 0.00 0.00 0.00 40 1012.7
20260903184028 82 327 3.0 12.0 0.00 0.00 0.00 40 1012.4
20260903183524 82 355 5.0 12.0 0.00 0.00 0.00 39 1012.4
20260903183050 82 46 6.0 13.0 0.00 0.00 0.00 39 1012.3
20260903182525 82 5 7.0 16.0 0.00 0.00 0.00 39 1012.3
20260903182025 82 331 7.0 16.0 0.00 0.00 0.00 39 1012.3
20260903181544 82 18 9.0 15.0 0.00 0.00 0.00 39 1012.4
20260903181025 82 355 9.0 16.0 0.00 0.00 0.00 39 1012.2
20260903180524 82 11 7.0 16.0 0.00 0.00 0.00 39 1012.2
20260903180104 83 355 7.0 16.0 0.00 0.00 0.00 39 1012.2
20260903175527 83 360 7.0 17.0 0.00 0.00 0.00 39 1012.1
20260903175027 83 351 5.0 17.0 0.00 0.00 0.00 39 1012.1
20260903174543 83 22 10.0 17.0 0.00 0.00 0.00 39 1012.1
20260903174026 83 13 9.0 18.0 0.00 0.00 0.00 40 1012.0
20260903173527 83 13 10.0 18.0 0.00 0.00 0.00 40 1012.0
20260903173049 83 355 9.0 17.0 0.00 0.00 0.00 41 1012.0
20260903172524 83 19 9.0 19.0 0.00 0.00 0.00 41 1012.0
20260903172027 83 35 9.0 19.0 0.00 0.00 0.00 41 1011.8
20260903171548 83 43 10.0 25.0 0.00 0.00 0.00 41 1011.8
20260903171028 83 338 11.0 25.0 0.00 0.00 0.00 42 1011.8
20260903170527 83 13 7.0 19.0 0.00 0.00 0.00 42 1011.7
20260903170048 83 321 9.0 19.0 0.00 0.00 0.00 43 1011.6
20260903165527 83 32 9.0 21.0 0.00 0.00 0.00 43 1011.6
20260903165027 83 46 9.0 21.0 0.00 0.00 0.00 43 1011.5
20260903164549 83 318 13.0 21.0 0.00 0.00 0.00 42 1011.5
20260903164027 83 24 9.0 19.0 0.00 0.00 0.00 42 1011.4
20260903163527 83 360 7.0 19.0 0.00 0.00 0.00 42 1011.4
20260903163057 83 360 11.0 19.0 0.00 0.00 0.00 42 1011.5
20260903162524 84 360 6.0 19.0 0.00 0.00 0.00 42 1011.5
20260903162031 84 360 6.0 15.0 0.00 0.00 0.00 41 1011.6
20260903161541 84 5 5.0 13.0 0.00 0.00 0.00 40 1011.4
20260903161027 84 42 7.0 16.0 0.00 0.00 0.00 40 1011.5
20260903160528 85 32 9.0 16.0 0.00 0.00 0.00 40 1011.3
20260903160039 85 17 6.0 16.0 0.00 0.00 0.00 40 1011.3
20260903155528 85 5 9.0 21.0 0.00 0.00 0.00 40 1011.5
20260903155027 85 17 4.0 21.0 0.00 0.00 0.00 40 1011.4
20260903154551 85 10 8.0 21.0 0.00 0.00 0.00 40 1011.4
20260903154027 85 360 8.0 22.0 0.00 0.00 0.00 40 1011.3
20260903153531 85 355 8.0 22.0 0.00 0.00 0.00 40 1011.3
20260903153047 85 335 11.0 22.0 0.00 0.00 0.00 40 1011.2
20260903152527 85 38 6.0 17.0 0.00 0.00 0.00 40 1011.2
20260903152027 85 352 7.0 17.0 0.00 0.00 0.00 41 1011.3
20260903151545 85 14 5.0 16.0 0.00 0.00 0.00 41 1011.3
20260903151027 86 90 6.0 16.0 0.00 0.00 0.00 41 1011.6
20260903150530 85 26 7.0 20.0 0.00 0.00 0.00 42 1011.5
20260903150043 85 38 8.0 20.0 0.00 0.00 0.00 42 1011.5
20260903145526 85 51 7.0 18.0 0.00 0.00 0.00 42 1011.6
20260903145031 85 33 7.0 20.0 0.00 0.00 0.00 42 1011.5
20260903144549 86 355 11.0 20.0 0.00 0.00 0.00 42 1011.5
20260903144026 86 320 9.0 19.0 0.00 0.00 0.00 43 1011.5
20260903143527 87 355 5.0 18.0 0.00 0.00 0.00 43 1011.5
20260903143052 87 15 8.0 18.0 0.00 0.00 0.00 42 1011.5
20260903142531 87 42 8.0 20.0 0.00 0.00 0.00 41 1011.5
20260903142026 87 345 11.0 23.0 0.00 0.00 0.00 41 1011.6
20260903141542 87 345 12.0 23.0 0.00 0.00 0.00 41 1011.6
20260903141027 88 22 12.0 23.0 0.00 0.00 0.00 39 1011.6
20260903140527 87 46 13.0 21.0 0.00 0.00 0.00 39 1011.5
20260903140046 88 53 12.0 21.0 0.00 0.00 0.00 38 1011.4
20260903135527 88 28 11.0 21.0 0.00 0.00 0.00 37 1011.4
20260903135027 88 24 11.0 21.0 0.00 0.00 0.00 37 1011.2
20260903134551 88 42 13.0 21.0 0.00 0.00 0.00 36 1011.3
20260903134027 89 49 8.0 20.0 0.00 0.00 0.00 37 1011.3
20260903133526 89 24 11.0 20.0 0.00 0.00 0.00 38 1011.3
20260903133053 89 31 7.0 17.0 0.00 0.00 0.00 39 1011.3
20260903132527 89 42 7.0 16.0 0.00 0.00 0.00 40 1011.4
20260903132027 88 344 8.0 16.0 0.00 0.00 0.00 40 1011.4
20260903131545 88 29 7.0 17.0 0.00 0.00 0.00 40 1011.4
20260903131027 88 37 9.0 17.0 0.00 0.00 0.00 40 1011.5
20260903130528 88 344 10.0 17.0 0.00 0.00 0.00 40 1011.5
20260903130100 89 355 7.0 15.0 0.00 0.00 0.00 40 1011.7
20260903125530 89 68 8.0 15.0 0.00 0.00 0.00 41 1011.7
20260903125027 89 21 8.0 15.0 0.00 0.00 0.00 40 1011.7
20260903124548 89 88 6.0 20.0 0.00 0.00 0.00 41 1011.7
20260903124023 88 350 6.0 20.0 0.00 0.00 0.00 41 1011.8
20260903123534 88 28 10.0 20.0 0.00 0.00 0.00 41 1011.8
20260903123047 89 13 8.0 20.0 0.00 0.00 0.00 41 1011.8
20260903122526 88 360 9.0 20.0 0.00 0.00 0.00 41 1011.9
20260903122026 89 33 6.0 19.0 0.00 0.00 0.00 41 1011.7
20260903121550 89 44 9.0 19.0 0.00 0.00 0.00 41 1011.9
20260903121029 89 9 7.0 16.0 0.00 0.00 0.00 41 1011.8
20260903120527 88 355 9.0 16.0 0.00 0.00 0.00 41 1012.0
20260903120108 89 44 7.0 19.0 0.00 0.00 0.00 41 1012.0
20260903115525 88 23 10.0 19.0 0.00 0.00 0.00 42 1012.0
20260903115030 88 16 10.0 17.0 0.00 0.00 0.00 42 1012.0
20260903114557 88 23 6.0 15.0 0.00 0.00 0.00 42 1012.0
20260903114029 88 25 7.0 16.0 0.00 0.00 0.00 43 1012.1
20260903113526 88 35 9.0 20.0 0.00 0.00 0.00 42 1012.2
20260903113043 88 355 10.0 21.0 0.00 0.00 0.00 42 1012.1
20260903112527 88 5 7.0 21.0 0.00 0.00 0.00 42 1012.1
20260903112027 89 41 10.0 21.0 0.00 0.00 0.00 41 1012.3
20260903111544 89 360 8.0 17.0 0.00 0.00 0.00 41 1012.1
20260903111026 89 360 6.0 16.0 0.00 0.00 0.00 42 1012.1
20260903110524 88 360 11.0 19.0 0.00 0.00 0.00 43 1012.1
20260903110059 88 333 10.0 21.0 0.00 0.00 0.00 44 1012.2
20260903105524 88 26 13.0 21.0 0.00 0.00 0.00 44 1012.1
20260903105026 88 13 11.0 20.0 0.00 0.00 0.00 43 1012.2
20260903104546 88 321 9.0 18.0 0.00 0.00 0.00 42 1012.1
20260903104025 88 48 11.0 18.0 0.00 0.00 0.00 43 1012.2
20260903103527 88 323 8.0 18.0 0.00 0.00 0.00 42 1012.2
20260903103040 87 340 11.0 18.0 0.00 0.00 0.00 42 1012.3
20260903102525 88 334 9.0 18.0 0.00 0.00 0.00 41 1012.2
20260903102025 88 343 11.0 18.0 0.00 0.00 0.00 42 1012.3
20260903101543 88 45 6.0 18.0 0.00 0.00 0.00 43 1012.3
20260903101024 88 41 9.0 18.0 0.00 0.00 0.00 43 1012.3
20260903100527 88 5 12.0 18.0 0.00 0.00 0.00 43 1012.3
20260903100047 87 44 6.0 20.0 0.00 0.00 0.00 43 1012.2
20260903095524 88 24 11.0 20.0 0.00 0.00 0.00 42 1012.5
20260903095026 88 348 11.0 26.0 0.00 0.00 0.00 40 1012.3
20260903094544 88 10 12.0 26.0 0.00 0.00 0.00 41 1012.4
20260903094027 88 350 14.0 26.0 0.00 0.00 0.00 42 1012.5
20260903093527 88 347 11.0 23.0 0.00 0.00 0.00 40 1012.5
20260903093045 88 47 13.0 23.0 0.00 0.00 0.00 41 1012.6
20260903092526 88 339 10.0 21.0 0.00 0.00 0.00 40 1012.7
20260903092026 87 331 11.0 21.0 0.00 0.00 0.00 41 1012.7
20260903091552 87 348 10.0 22.0 0.00 0.00 0.00 41 1012.7
20260903091025 87 19 10.0 22.0 0.00 0.00 0.00 42 1012.7